When you browse on this site, cookies collect data to enhance your experience and personalize the content and advertising you see.
Visit our Privacy Policy to learn more. By continuing to use the site, you agree to this use of cookies and data.
  • In Deutschland
  • Länderverzeichnis
  • Für 7 Tage
  • Wassertemperatur
  • Wetterkarte
  • Widgets
  • user-avatar
    Anmelden

    Stündliche Wetter Bremen

    Heute, 20 August, Dienstag

    Zeit Temperatur Niederschläge Wind Luftdruck Luftfeuchtigkeit
    00:00 +13°C° 0 mm 3 m/S 762 mmHg 88%
    01:00 +13°C° 0 mm 3 m/S 762 mmHg 89%
    02:00 +12°C° 0 mm 3 m/S 762 mmHg 89%
    03:00 +12°C° 0 mm 3 m/S 763 mmHg 90%
    04:00 +12°C° 0 mm 3 m/S 763 mmHg 91%
    05:00 +12°C° 0 mm 4 m/S 763 mmHg 89%
    06:00 +13°C° 0 mm 4 m/S 763 mmHg 87%
    07:00 +13°C° 0 mm 4 m/S 763 mmHg 85%
    08:00 +15°C° 0 mm 4 m/S 764 mmHg 80%
    09:00 +17°C° 0 mm 4 m/S 764 mmHg 75%
    10:00 +19°C° 0 mm 4 m/S 764 mmHg 70%
    11:00 +20°C° 0.1 mm 4 m/S 764 mmHg 66%
    12:00 +20°C° 0.1 mm 4 m/S 765 mmHg 63%
    13:00 +21°C° 0.1 mm 4 m/S 765 mmHg 59%
    14:00 +21°C° 0.2 mm 4 m/S 765 mmHg 60%
    15:00 +21°C° 0.2 mm 4 m/S 765 mmHg 61%
    16:00 +21°C° 0.2 mm 4 m/S 765 mmHg 62%
    17:00 +19°C° 0.5 mm 3 m/S 765 mmHg 69%
    18:00 +18°C° 0.5 mm 2 m/S 765 mmHg 76%
    19:00 +17°C° 0.5 mm 2 m/S 766 mmHg 83%
    20:00 +16°C° 0 mm 2 m/S 766 mmHg 86%
    21:00 +15°C° 0 mm 1 m/S 767 mmHg 88%
    22:00 +14°C° 0 mm 1 m/S 767 mmHg 91%
    23:00 +13°C° 0 mm 1 m/S 767 mmHg 92%

    Morgen, 21 August, Mittwoch

    Zeit Temperatur Niederschläge Wind Luftdruck Luftfeuchtigkeit
    00:00 +13°C° 0 mm 1 m/S 767 mmHg 92%
    01:00 +12°C° 0 mm 1 m/S 768 mmHg 93%
    02:00 +12°C° 0 mm 2 m/S 768 mmHg 94%
    03:00 +12°C° 0 mm 2 m/S 768 mmHg 94%
    04:00 +10°C° 0 mm 2 m/S 768 mmHg 94%
    05:00 +12°C° 0 mm 2 m/S 768 mmHg 92%
    06:00 +12°C° 0 mm 2 m/S 769 mmHg 91%
    07:00 +12°C° 0 mm 3 m/S 769 mmHg 89%
    08:00 +14°C° 0 mm 3 m/S 769 mmHg 82%
    09:00 +17°C° 0 mm 3 m/S 769 mmHg 76%
    10:00 +18°C° 0 mm 3 m/S 769 mmHg 70%
    11:00 +19°C° 0 mm 3 m/S 769 mmHg 64%
    12:00 +20°C° 0 mm 3 m/S 769 mmHg 59%
    13:00 +21°C° 0 mm 3 m/S 769 mmHg 54%
    14:00 +21°C° 0 mm 3 m/S 769 mmHg 54%
    15:00 +21°C° 0 mm 2 m/S 769 mmHg 54%
    16:00 +21°C° 0 mm 2 m/S 769 mmHg 54%
    17:00 +20°C° 0 mm 2 m/S 768 mmHg 61%
    18:00 +20°C° 0 mm 1 m/S 768 mmHg 67%
    19:00 +18°C° 0 mm 1 m/S 768 mmHg 74%
    20:00 +16°C° 0 mm 1 m/S 769 mmHg 78%
    21:00 +15°C° 0 mm 1 m/S 769 mmHg 82%
    22:00 +14°C° 0 mm 1 m/S 769 mmHg 87%
    23:00 +14°C° 0 mm 1 m/S 769 mmHg 86%

    übermorgen, 22 August, Donnerstag

    Zeit Temperatur Niederschläge Wind Luftdruck Luftfeuchtigkeit
    00:00 +14°C° 0 mm 1 m/S 769 mmHg 85%
    01:00 +13°C° 0 mm 1 m/S 769 mmHg 85%
    02:00 +13°C° 0 mm 2 m/S 768 mmHg 83%
    03:00 +13°C° 0 mm 2 m/S 768 mmHg 81%
    04:00 +13°C° 0 mm 2 m/S 768 mmHg 80%
    05:00 +13°C° 0 mm 2 m/S 768 mmHg 78%
    06:00 +14°C° 0 mm 2 m/S 768 mmHg 77%
    07:00 +14°C° 0 mm 2 m/S 768 mmHg 75%
    08:00 +16°C° 0 mm 2 m/S 768 mmHg 70%
    09:00 +18°C° 0 mm 2 m/S 768 mmHg 65%
    10:00 +20°C° 0 mm 2 m/S 768 mmHg 61%
    11:00 +21°C° 0 mm 2 m/S 768 mmHg 57%
    12:00 +24°C° 0 mm 3 m/S 767 mmHg 53%
    13:00 +25°C° 0 mm 3 m/S 767 mmHg 49%
    14:00 +25°C° 0 mm 3 m/S 767 mmHg 50%
    15:00 +25°C° 0 mm 3 m/S 767 mmHg 50%
    16:00 +25°C° 0 mm 3 m/S 767 mmHg 51%
    17:00 +22°C° 0 mm 3 m/S 767 mmHg 58%
    18:00 +21°C° 0 mm 2 m/S 767 mmHg 65%
    19:00 +19°C° 0 mm 2 m/S 767 mmHg 73%
    20:00 +18°C° 0 mm 2 m/S 768 mmHg 78%
    21:00 +16°C° 0 mm 2 m/S 768 mmHg 84%
    22:00 +15°C° 0 mm 1 m/S 768 mmHg 89%
    23:00 +15°C° 0 mm 1 m/S 768 mmHg 89%

    23 August, Freitag

    Zeit Temperatur Niederschläge Wind Luftdruck Luftfeuchtigkeit
    00:00 +14°C° 0 mm 1 m/S 768 mmHg 90%
    01:00 +14°C° 0 mm 1 m/S 768 mmHg 90%
    02:00 +13°C° 0 mm 0 m/S 768 mmHg 90%
    03:00 +13°C° 0 mm 0 m/S 768 mmHg 89%
    04:00 +13°C° 0 mm 0 m/S 768 mmHg 89%
    05:00 +13°C° 0 mm 0 m/S 768 mmHg 86%
    06:00 +14°C° 0 mm 0 m/S 768 mmHg 84%
    07:00 +16°C° 0 mm 1 m/S 769 mmHg 81%
    08:00 +19°C° 0 mm 1 m/S 769 mmHg 74%
    09:00 +21°C° 0 mm 1 m/S 769 mmHg 67%
    10:00 +23°C° 0 mm 1 m/S 769 mmHg 61%
    11:00 +24°C° 0 mm 1 m/S 769 mmHg 55%
    12:00 +25°C° 0 mm 1 m/S 768 mmHg 49%
    13:00 +26°C° 0 mm 1 m/S 768 mmHg 44%
    14:00 +26°C° 0 mm 1 m/S 768 mmHg 43%
    15:00 +26°C° 0 mm 1 m/S 768 mmHg 42%
    16:00 +25°C° 0 mm 0 m/S 767 mmHg 41%
    17:00 +25°C° 0 mm 1 m/S 767 mmHg 49%
    18:00 +23°C° 0 mm 2 m/S 767 mmHg 56%
    19:00 +21°C° 0 mm 2 m/S 767 mmHg 64%
    20:00 +19°C° 0 mm 2 m/S 767 mmHg 66%
    21:00 +18°C° 0 mm 2 m/S 767 mmHg 67%
    22:00 +17°C° 0 mm 3 m/S 767 mmHg 69%
    23:00 +17°C° 0 mm 3 m/S 767 mmHg 71%

    24 August, Samstag

    Zeit Temperatur Niederschläge Wind Luftdruck Luftfeuchtigkeit
    00:00 +17°C° 0 mm 2 m/S 767 mmHg 73%
    01:00 +17°C° 0 mm 2 m/S 767 mmHg 75%
    02:00 +16°C° 0 mm 2 m/S 766 mmHg 75%
    03:00 +16°C° 0 mm 3 m/S 766 mmHg 74%
    04:00 +16°C° 0 mm 3 m/S 766 mmHg 73%
    05:00 +17°C° 0 mm 3 m/S 766 mmHg 74%
    06:00 +17°C° 0 mm 3 m/S 765 mmHg 74%
    07:00 +18°C° 0 mm 3 m/S 765 mmHg 75%
    08:00 +20°C° 0 mm 3 m/S 765 mmHg 70%
    09:00 +21°C° 0 mm 4 m/S 765 mmHg 65%
    10:00 +23°C° 0 mm 4 m/S 765 mmHg 60%
    11:00 +25°C° 0 mm 4 m/S 765 mmHg 57%
    12:00 +26°C° 0 mm 4 m/S 764 mmHg 54%
    13:00 +27°C° 0 mm 4 m/S 764 mmHg 51%
    14:00 +28°C° 0 mm 3 m/S 764 mmHg 50%
    15:00 +28°C° 0 mm 3 m/S 763 mmHg 49%
    16:00 +28°C° 0 mm 3 m/S 763 mmHg 48%
    17:00 +26°C° 0 mm 2 m/S 763 mmHg 54%
    18:00 +25°C° 0 mm 2 m/S 763 mmHg 60%
    19:00 +23°C° 0 mm 2 m/S 762 mmHg 66%
    20:00 +21°C° 0 mm 2 m/S 762 mmHg 67%
    21:00 +20°C° 0 mm 2 m/S 762 mmHg 69%
    22:00 +19°C° 0 mm 2 m/S 763 mmHg 71%
    23:00 +19°C° 0 mm 2 m/S 762 mmHg 72%

    25 August, Sonntag

    Zeit Temperatur Niederschläge Wind Luftdruck Luftfeuchtigkeit
    00:00 +18°C° 0 mm 2 m/S 762 mmHg 74%
    01:00 +18°C° 0 mm 2 m/S 762 mmHg 75%
    02:00 +18°C° 0 mm 1 m/S 762 mmHg 77%
    03:00 +18°C° 0 mm 1 m/S 762 mmHg 79%
    04:00 +18°C° 0 mm 1 m/S 761 mmHg 81%
    05:00 +18°C° 0 mm 1 m/S 761 mmHg 80%
    06:00 +19°C° 0 mm 1 m/S 761 mmHg 79%
    07:00 +19°C° 0 mm 1 m/S 761 mmHg 79%
    08:00 +21°C° 0 mm 1 m/S 761 mmHg 73%
    09:00 +23°C° 0 mm 1 m/S 761 mmHg 66%
    10:00 +25°C° 0 mm 1 m/S 761 mmHg 60%
    11:00 +26°C° 0 mm 1 m/S 761 mmHg 55%
    12:00 +28°C° 0 mm 1 m/S 761 mmHg 51%
    13:00 +29°C° 0 mm 1 m/S 761 mmHg 46%
    14:00 +29°C° 0 mm 1 m/S 760 mmHg 46%
    15:00 +29°C° 0 mm 1 m/S 760 mmHg 46%
    16:00 +29°C° 0 mm 1 m/S 760 mmHg 47%
    17:00 +27°C° 0 mm 2 m/S 760 mmHg 56%
    18:00 +25°C° 0 mm 2 m/S 760 mmHg 65%
    19:00 +22°C° 0 mm 3 m/S 760 mmHg 74%
    20:00 +21°C° 0 mm 2 m/S 760 mmHg 77%
    21:00 +20°C° 0 mm 2 m/S 760 mmHg 80%
    22:00 +19°C° 0 mm 2 m/S 760 mmHg 83%
    23:00 +19°C° 0 mm 2 m/S 760 mmHg 83%
    Mehr zeigen